TimePDT,TemperatureF,Dew PointF,Humidity,Sea Level PressureIn,VisibilityMPH,Wind Direction,Wind SpeedMPH,Gust SpeedMPH,PrecipitationIn,Events,Conditions,WindDirDegrees,DateUTC
12:53 AM,73.0,55.0,53,29.73,10.0,South,5.8,-,N/A,,Clear,180,2013-07-01 07:53:00
1:53 AM,71.1,55.0,57,29.73,10.0,SSW,3.5,-,N/A,,Clear,200,2013-07-01 08:53:00
2:53 AM,69.1,55.0,61,29.74,10.0,SSE,3.5,-,N/A,,Clear,160,2013-07-01 09:53:00
3:53 AM,69.1,55.0,61,29.75,10.0,South,4.6,-,N/A,,Clear,180,2013-07-01 10:53:00
4:53 AM,68.0,55.9,65,29.76,10.0,Calm,Calm,-,N/A,,Clear,0,2013-07-01 11:53:00
5:53 AM,66.0,55.0,68,29.78,10.0,SSE,3.5,-,N/A,,Clear,160,2013-07-01 12:53:00
6:53 AM,68.0,55.9,65,29.78,10.0,Calm,Calm,-,N/A,,Clear,0,2013-07-01 13:53:00
7:53 AM,71.1,55.9,59,29.79,10.0,Calm,Calm,-,N/A,,Clear,0,2013-07-01 14:53:00
8:53 AM,73.9,57.0,55,29.80,10.0,Calm,Calm,-,N/A,,Clear,0,2013-07-01 15:53:00
9:53 AM,80.1,55.9,43,29.80,10.0,Calm,Calm,-,N/A,,Clear,0,2013-07-01 16:53:00
10:53 AM,86.0,57.0,37,29.80,10.0,NW,4.6,-,N/A,,Clear,320,2013-07-01 17:53:00
11:53 AM,93.0,57.9,31,29.80,10.0,North,4.6,-,N/A,,Clear,350,2013-07-01 18:53:00
12:53 PM,98.1,57.0,25,29.79,10.0,NNW,5.8,-,N/A,,Clear,340,2013-07-01 19:53:00
1:53 PM,100.9,55.0,22,29.79,10.0,Variable,4.6,-,0.00,,Clear,0,2013-07-01 20:53:00
2:53 PM,102.9,54.0,20,29.78,10.0,NNW,5.8,-,N/A,,Clear,330,2013-07-01 21:53:00
3:53 PM,104.0,57.9,22,29.77,10.0,Variable,3.5,-,N/A,,Clear,0,2013-07-01 22:53:00
4:53 PM,104.0,46.0,14,29.76,10.0,Calm,Calm,-,N/A,,Clear,0,2013-07-01 23:53:00
5:53 PM,105.1,46.0,14,29.75,10.0,West,5.8,-,N/A,,Clear,280,2013-07-02 00:53:00
6:53 PM,102.0,55.0,21,29.74,10.0,WSW,5.8,-,N/A,,Clear,240,2013-07-02 01:53:00
7:53 PM,96.1,59.0,29,29.75,10.0,SW,8.1,-,N/A,,Clear,230,2013-07-02 02:53:00
8:53 PM,89.1,57.9,35,29.75,10.0,WSW,8.1,-,N/A,,Clear,240,2013-07-02 03:53:00
9:53 PM,86.0,57.9,38,29.77,10.0,SW,3.5,-,N/A,,Clear,220,2013-07-02 04:53:00
10:53 PM,82.0,60.1,47,29.78,10.0,Calm,Calm,-,N/A,,Clear,0,2013-07-02 05:53:00
11:53 PM,82.0,59.0,45,29.78,10.0,ESE,3.5,-,N/A,,Clear,110,2013-07-02 06:53:00